Asheboro, NC

2:09 AM EDT on July 30, 2016 (GMT -0400)
Asheboro Municipal

Weather History for KHBI - February, 2013

Change the Weather History Date:

Monday, February 11, 2013

  Actual Average Record
Temperature  
Mean Temperature 52 °F -  
Max Temperature 61 °F 54 °F 76 °F (1965)
Min Temperature 44 °F 30 °F 12 °F (1936)
Degree Days  
Heating Degree Days 12    
Growing Degree Days 2 (Base 50)    
Moisture  
Dew Point 55 °F    
Average Humidity 95    
Maximum Humidity 100    
Minimum Humidity 87    
Precipitation  
Precipitation 0.08 in - - ()
Sea Level Pressure  
Sea Level Pressure 30.06 in    
Wind  
Wind Speed 9 mph (SSW)    
Max Wind Speed 15 mph    
Max Gust Speed 23 mph    
Visibility 9 miles    
Events Rain    
Averages and records for this station are not official NWS values.
T = Trace of Precipitation, MM = Missing Value Source: NWS Daily Summary

Daily Weather History Graph

Daily Weather History Graph

Search for Another Location

Airport or City:

Trip Planner

Search our weather history database for the weather conditions in past years. The results will help you decide how hot, cold, wet, or windy it might be!

Date:

Astronomy

Feb. 11, 2013 Rise Set
Actual Time 7:10 AM EST 5:57 PM EST
Civil Twilight 6:44 AM EST 6:24 PM EST
Nautical Twilight 6:14 AM EST 6:54 PM EST
Astronomical Twilight 5:44 AM EST 7:23 PM EST
Moon 7:38 AM EST (2/11) 7:46 PM EST (2/11)
Length of Visible Light 11h 39m
Length of Day
10h 47m
Waxing Crescent, 3% of the Moon is Illuminated
Feb 11
Waxing Crescent
Feb 17
First Quarter
Feb 25
Full
Mar 4
Last Quarter
Mar 11
New

Hourly Weather History & Observations

Time (EST) Temp. Windchill Dew Point Humidity Pressure Visibility Wind Dir Wind Speed Gust Speed Precip Events Conditions
12:15 AM 44.6 °F 41.4 °F 41.2 °F 88% 30.21 in 10.0 mi SSE 5.8 mph - N/A   Scattered Clouds
12:35 AM 44.8 °F 43.3 °F 42.4 °F 91% 30.19 in 10.0 mi SSE 3.5 mph - N/A   Mostly Cloudy
12:55 AM 44.8 °F 41.6 °F 43.0 °F 93% 30.17 in 10.0 mi SSE 5.8 mph - N/A   Overcast
1:15 AM 45.5 °F 43.2 °F 44.1 °F 95% 30.16 in 10.0 mi SSE 4.6 mph - N/A   Overcast
1:35 AM 46.9 °F - 45.9 °F 96% 30.17 in 10.0 mi South 5.8 mph - N/A   Overcast
1:55 AM 48.4 °F - 47.5 °F 97% 30.17 in 10.0 mi SSE 6.9 mph - N/A Rain Light Rain
2:15 AM 50.0 °F - 49.3 °F 97% 30.15 in 10.0 mi South 5.8 mph - N/A   Overcast
2:35 AM 51.8 °F - 50.9 °F 97% 30.16 in 10.0 mi SSW 9.2 mph - N/A   Overcast
2:55 AM 52.7 °F - 51.3 °F 95% 30.14 in 10.0 mi South 11.5 mph 16.1 mph N/A   Overcast
3:15 AM 52.5 °F - 51.1 °F 95% 30.14 in 10.0 mi South 8.1 mph 17.3 mph N/A   Overcast
3:35 AM 52.7 °F - 51.8 °F 97% 30.12 in 10.0 mi South 9.2 mph 16.1 mph N/A   Overcast
3:55 AM 53.2 °F - 52.2 °F 96% 30.11 in 10.0 mi South 8.1 mph - N/A   Overcast
4:15 AM 54.0 °F - 52.5 °F 95% 30.11 in 10.0 mi South 10.4 mph 16.1 mph N/A   Overcast
4:35 AM 54.5 °F - 53.1 °F 95% 30.10 in 10.0 mi South 9.2 mph 18.4 mph N/A   Overcast
4:55 AM 54.9 °F - 53.6 °F 96% 30.09 in 10.0 mi South 13.8 mph 21.9 mph N/A   Overcast
5:15 AM 54.9 °F - 53.8 °F 96% 30.11 in 10.0 mi SSW 13.8 mph 19.6 mph N/A   Overcast
5:35 AM 54.7 °F - 54.0 °F 97% 30.10 in 7.0 mi South 10.4 mph 18.4 mph 0.01 in Rain Rain
5:55 AM 54.7 °F - 54.5 °F 99% 30.09 in 7.0 mi South 8.1 mph - 0.02 in Rain Rain
6:15 AM 55.4 °F - 54.9 °F 98% 30.10 in 10.0 mi South 11.5 mph - N/A   Light Drizzle
6:35 AM 55.8 °F - 55.4 °F 99% 30.11 in 10.0 mi SSW 10.4 mph - N/A Rain Light Rain
6:55 AM 55.9 °F - 55.6 °F 99% 30.11 in 10.0 mi SSW 10.4 mph - 0.01 in Rain Light Rain
7:15 AM 55.9 °F - 55.8 °F 99% 30.11 in 7.0 mi SW 8.1 mph - 0.02 in Rain Light Rain
7:35 AM 55.8 °F - 55.8 °F 100% 30.11 in 10.0 mi SSW 9.2 mph - 0.03 in Rain Light Rain
7:55 AM 56.3 °F - 56.3 °F 100% 30.09 in 10.0 mi South 9.2 mph - 0.04 in Rain Light Rain
8:15 AM 56.7 °F - 56.3 °F 99% 30.07 in 4.0 mi South 11.5 mph 16.1 mph N/A Rain Rain
8:35 AM 57.2 °F - 56.5 °F 97% 30.07 in 10.0 mi SSW 13.8 mph 21.9 mph N/A   Overcast
8:55 AM 57.4 °F - 56.5 °F 97% 30.07 in 10.0 mi South 10.4 mph 19.6 mph N/A   Overcast
9:15 AM 57.6 °F - 56.7 °F 97% 30.07 in 10.0 mi SSW 11.5 mph 16.1 mph N/A   Overcast
9:35 AM 57.2 °F - 56.7 °F 98% 30.09 in 10.0 mi SSW 15.0 mph 23.0 mph N/A   Overcast
9:55 AM 57.2 °F - 56.8 °F 99% 30.09 in 7.0 mi SSW 12.7 mph 19.6 mph N/A   Overcast
10:35 AM 57.6 °F - 57.0 °F 98% 30.07 in 10.0 mi SSW 11.5 mph 18.4 mph N/A   Overcast
10:55 AM 57.7 °F - 57.2 °F 98% 30.06 in 7.0 mi SSW 11.5 mph 17.3 mph N/A   Overcast
11:15 AM 57.9 °F - 57.6 °F 99% 30.06 in 3.0 mi SSW 12.7 mph 18.4 mph N/A   Overcast
11:35 AM 58.1 °F - 57.7 °F 99% 30.04 in 2.0 mi SSW 9.2 mph - N/A   Light Drizzle
11:55 AM 58.1 °F - 58.1 °F 100% 30.05 in 2.5 mi SSW 8.1 mph - N/A   Light Drizzle
12:15 PM 58.1 °F - 58.1 °F 100% 30.04 in 1.8 mi SW 12.7 mph 17.3 mph N/A   Light Drizzle
12:35 PM 58.3 °F - 58.3 °F 100% 30.04 in 2.0 mi SW 12.7 mph 17.3 mph N/A   Light Drizzle
12:55 PM 58.3 °F - 58.3 °F 100% 30.04 in 2.0 mi SSW 11.5 mph 17.3 mph N/A   Light Drizzle
1:15 PM 58.5 °F - 58.5 °F 100% 30.02 in 2.0 mi SSW 10.4 mph - N/A   Overcast
1:35 PM 58.8 °F - 58.8 °F 100% 30.00 in 4.0 mi SSW 12.7 mph 19.6 mph N/A   Overcast
1:55 PM 59.2 °F - 59.0 °F 99% 30.00 in 10.0 mi SSW 13.8 mph 21.9 mph N/A   Overcast
2:15 PM 59.4 °F - 59.0 °F 99% 30.00 in 7.0 mi SSW 11.5 mph 20.7 mph 0.01 in   Overcast
2:35 PM 59.4 °F - 59.0 °F 99% 29.99 in 5.0 mi SSW 11.5 mph 21.9 mph 0.01 in   Overcast
2:55 PM 59.5 °F - 59.0 °F 98% 30.01 in 5.0 mi SSW 11.5 mph 16.1 mph 0.01 in   Overcast
3:15 PM 59.7 °F - 59.0 °F 97% 30.01 in 7.0 mi SW 9.2 mph - N/A   Overcast
3:35 PM 60.3 °F - 59.0 °F 96% 29.98 in 10.0 mi SSW 8.1 mph - N/A   Overcast
3:55 PM 60.4 °F - 58.6 °F 94% 29.98 in 10.0 mi SSW 9.2 mph - N/A   Overcast
4:15 PM 60.8 °F - 58.3 °F 91% 29.97 in 10.0 mi SSW 9.2 mph - N/A   Overcast
4:35 PM 60.8 °F - 58.3 °F 91% 29.99 in 10.0 mi SW 8.1 mph - N/A   Overcast
4:55 PM 61.2 °F - 57.4 °F 87% 29.99 in 10.0 mi SSW 8.1 mph - N/A   Overcast
5:55 PM 60.1 °F - 56.1 °F 87% 30.00 in 10.0 mi SW 5.8 mph - N/A   Overcast
6:15 PM 59.7 °F - 55.8 °F 87% 30.00 in 10.0 mi WSW 9.2 mph - N/A   Overcast
6:35 PM 59.2 °F - 55.6 °F 88% 30.00 in 10.0 mi SW 5.8 mph - N/A   Overcast
6:55 PM 59.0 °F - 55.6 °F 88% 30.00 in 10.0 mi WSW 4.6 mph - N/A   Overcast
7:15 PM 58.6 °F - 55.4 °F 89% 30.02 in 10.0 mi WSW 6.9 mph - N/A   Overcast
7:35 PM 58.5 °F - 55.4 °F 90% 30.01 in 10.0 mi SW 6.9 mph - N/A   Mostly Cloudy
7:55 PM 58.1 °F - 55.4 °F 91% 30.01 in 10.0 mi SW 6.9 mph - N/A   Scattered Clouds
8:15 PM 57.6 °F - 55.0 °F 91% 30.00 in 10.0 mi SW 9.2 mph - N/A   Clear
8:35 PM 57.4 °F - 55.0 °F 92% 30.00 in 10.0 mi SW 9.2 mph - N/A   Clear
8:55 PM 57.0 °F - 54.9 °F 92% 30.01 in 10.0 mi SW 9.2 mph - N/A   Clear
9:15 PM 56.7 °F - 54.7 °F 93% 30.01 in 10.0 mi SW 8.1 mph - N/A   Clear
9:35 PM 56.3 °F - 54.5 °F 94% 30.00 in 10.0 mi SW 9.2 mph - N/A   Clear
9:55 PM 56.3 °F - 54.0 °F 92% 30.00 in 10.0 mi SW 9.2 mph - N/A   Clear
10:15 PM 55.8 °F - 53.6 °F 92% 30.00 in 10.0 mi SW 9.2 mph 16.1 mph N/A   Clear
10:35 PM 55.4 °F - 53.2 °F 92% 30.01 in 10.0 mi SW 8.1 mph - N/A   Clear
10:55 PM 55.0 °F - 53.1 °F 93% 30.00 in 10.0 mi SW 8.1 mph - N/A   Clear
11:15 PM 54.9 °F - 52.7 °F 92% 30.00 in 10.0 mi SW 8.1 mph - N/A   Clear
11:35 PM 54.5 °F - 52.7 °F 94% 30.00 in 10.0 mi SW 5.8 mph - N/A   Clear
11:55 PM 54.3 °F - 52.5 °F 94% 29.99 in 10.0 mi SW 5.8 mph - N/A   Clear